This demonstration page uses our WeatherBlox Daily Observations layout. Learn more.

Left ArrowRight Arrow

31.84235, -102.49876

Hourly Observations for May 21, 2017

Temp ( °F °C ) Dew Point ( °F °C ) Humidity (%) Winds ( mph kmh ) Pressure ( in mb ) Visibility ( mi km ) Precip ( " mm )
12:53 am 00:53 Clear 66 18.9 52 11.1 61 61 ESE 13 20 29.98 1015 10 16 0.00 0.00
1:53 am 01:53 Clear 65 18.3 52 11.1 63 63 ESE 12 19 29.98 1015 10 16 0.00 0.00
2:53 am 02:53 Mostly Clear 65 18.3 52 11.1 63 63 ESE 14 22 29.98 1015 10 16 0.00 0.00
3:53 am 03:53 Cloudy 65 18.3 53 11.7 66 66 ESE 14 22 29.98 1015 10 16 0.00 0.00
4:53 am 04:53 Cloudy 66 18.9 52 11.1 61 61 ESE 16 26 29.98 1015 10 16 0.00 0.00
5:53 am 05:53 Mostly Cloudy 65 18.3 53 11.7 66 66 ESE 16 26 29.99 1016 10 16 0.00 0.00
6:53 am 06:53 Cloudy 64 17.8 51 10.6 63 63 ESE 16 26 30.02 1017 10 16 0.00 0.00
7:53 am 07:53 Cloudy 65 18.3 51 10.6 61 61 ESE 17 28 30.03 1017 10 16 0.00 0.00
8:25 am 08:25 Mostly Cloudy 65 18.3 52 11.1 63 63 ESE 17 28 30.03 1017 10 16 0.00 0.00
8:53 am 08:53 Mostly Cloudy 67 19.4 52 11.1 59 59 ESE 17 28 30.04 1017 10 16 0.00 0.00
9:37 am 09:37 Partly Cloudy 68 20 53 11.7 59 59 ESE 18 30 30.00 1016 10 16 0.00 0.00
9:53 am 09:53 Mostly Cloudy 69 20.6 53 11.7 57 57 ESE 18 30 30.06 1018 10 16 0.00 0.00
10:53 am 10:53 Mostly Cloudy 70 21.1 54 12.2 57 57 ESE 18 30 30.06 1018 10 16 0.00 0.00
11:24 am 11:24 Mostly Cloudy 71 21.7 54 12.2 55 55 ESE 18 30 30.03 1017 10 16 0.00 0.00
11:31 am 11:31 Mostly Cloudy 70 21.1 53 11.7 55 55 ESE 17 28 30.03 1017 10 16 0.00 0.00
11:53 am 11:53 Cloudy 71 21.7 52 11.1 51 51 ESE 21 33 30.05 1018 10 16 0.00 0.00
12:23 pm 12:23 Cloudy 70 21.1 53 11.7 55 55 ESE 22 35 30.00 1016 10 16 0.00 0.00
12:39 pm 12:39 Cloudy 69 20.6 53 11.7 57 57 ESE 24 39 30.00 1016 10 16 0.00 0.00
12:53 pm 12:53 Mostly Cloudy 68 20 52 11.1 57 57 ESE 20 31 30.04 1017 10 16 0.00 0.00
1:29 pm 13:29 Cloudy with Nearby Thunderstorms 67 19.4 51 10.6 57 57 SE 15 24 30.03 1017 10 16 0.00 0.00
1:42 pm 13:42 Cloudy with Thunderstorms 67 19.4 51 10.6 57 57 SSE 17 28 30.03 1017 10 16 0.00 0.00
1:53 pm 13:53 Cloudy with Nearby Thunderstorms 67 19.4 51 10.6 57 57 ESE 22 35 30.04 1017 10 16 0.00 0.00
2:06 pm 14:06 Cloudy with Nearby Thunderstorms 65 18.3 53 11.7 66 66 ESE 21 33 30.03 1017 9 14 0.00 0.03
2:37 pm 14:37 Cloudy with Light Rain 64 17.8 55 12.8 73 73 ESE 9 15 30.03 1017 10 16 0.00 0.03
2:53 pm 14:53 Cloudy 64 17.8 55 12.8 73 73 ESE 10 17 30.04 1017 10 16 0.01 0.25
3:53 pm 15:53 Cloudy with Light Rain 66 18.9 54 12.2 65 65 ESE 16 26 30.01 1016 10 16 0.01 0.25
4:19 pm 16:19 Mostly Cloudy 68 20 53 11.7 59 59 E 14 22 29.97 1015 10 16 0.00 0.03
4:53 pm 16:53 Cloudy 68 20 53 11.7 59 59 ESE 18 30 30.01 1016 10 16 0.00 0.03
5:27 pm 17:27 Mostly Cloudy 68 20 55 12.8 63 63 ESE 15 24 29.97 1015 10 16 0.00 0.00
5:53 pm 17:53 Mostly Sunny 68 20 56 13.3 65 65 SE 15 24 30.00 1016 10 16 0.00 0.00
6:53 pm 18:53 Sunny 68 20 56 13.3 65 65 ESE 10 17 29.98 1015 10 16 0.00 0.00
7:53 pm 19:53 Sunny 67 19.4 56 13.3 68 68 ESE 12 19 29.98 1015 10 16 0.00 0.00
8:53 pm 20:53 Clear 65 18.3 56 13.3 73 73 SE 8 13 29.98 1015 10 16 0.00 0.00
9:53 pm 21:53 Clear 62 16.7 56 13.3 80 80 ESE 8 13 30.00 1016 10 16 0.00 0.00
10:53 pm 22:53 Clear 60 15.6 55 12.8 84 84 ESE 7 11 30.03 1017 10 16 0.00 0.00
11:53 pm 23:53 Clear 59 15 54 12.2 83 83 ESE 10 17 30.04 1017 10 16 0.00 0.00

Powered by AerisWeather